This is the latest recevied weather packets stored in our database for station/object KC3JUG-3. If no packets are shown the sender has not sent any weather packets the latest 10 day(s).
| Time | Temp. | Humidity | Pressure | Rain* | Wind** | Luminosity | Snow |
|---|---|---|---|---|---|---|---|
| 1777278947 | 5° C | 95% | 1024.2 hPa | 0 mm | - | - | - |
| 1777278347 | 5° C | 95% | 1024.2 hPa | 0 mm | - | - | - |
| 1777278047 | 5° C | 95% | 1024.3 hPa | 0 mm | - | - | - |
| 1777277446 | 5° C | 95% | 1024.3 hPa | 0 mm | - | - | - |
| 1777276247 | 5° C | 95% | 1024.3 hPa | 0 mm | - | - | - |
| 1777273848 | 5.56° C | 94% | 1024.2 hPa | 0 mm | - | - | - |
| 1777273548 | 5.56° C | 94% | 1024.1 hPa | 0 mm | - | - | - |
| 1777273251 | 5.56° C | 94% | 1024.1 hPa | 0 mm | - | - | - |
| 1777272646 | 5.56° C | 93% | 1024.1 hPa | 0 mm | - | - | - |
| 1777271746 | 6.11° C | 93% | 1024 hPa | 0 mm | - | - | - |
| 1777271454 | 6.11° C | 93% | 1024.1 hPa | 0 mm | - | - | - |
| 1777271146 | 6.11° C | 93% | 1024.1 hPa | 0 mm | - | - | - |
| 1777270247 | 6.11° C | 92% | 1023.9 hPa | 0 mm | - | - | - |
| 1777269947 | 6.67° C | 92% | 1024 hPa | 0 mm | - | - | - |
| 1777269654 | 6.67° C | 91% | 1023.9 hPa | 0 mm | - | - | - |
| 1777269048 | 6.67° C | 91% | 1023.9 hPa | 0 mm | - | - | - |
| 1777268446 | 7.22° C | 91% | 1023.9 hPa | 0 mm | - | - | - |
| 1777268146 | 7.22° C | 90% | 1024 hPa | 0 mm | - | - | - |
| 1777267246 | 7.22° C | 90% | 1024 hPa | 0 mm | - | - | - |
| 1777265746 | 7.78° C | 90% | 1024.1 hPa | 0 mm | - | - | - |
| 1777260675 | 8.33° C | 87% | 1023.9 hPa | 0 mm | - | - | - |
| 1777260349 | 8.33° C | 87% | 1024 hPa | 0 mm | - | - | - |
| 1777259750 | 8.89° C | 87% | 1024 hPa | 0 mm | - | - | - |
| 1777259450 | 8.89° C | 87% | 1023.9 hPa | 0 mm | - | - | - |
| 1777254354 | 8.33° C | 89% | 1023.6 hPa | 0 mm | - | - | - |
* Rain latest hour (hover to see other rain measurements)
** Current wind speed in m/s (hover to see current wind gust speed)